Time,TemperatureF,DewpointF,PressureIn,WindDirection,WindDirectionDegrees,WindSpeedMPH,WindSpeedGustMPH,Humidity,HourlyPrecipIn,Conditions,Clouds,dailyrainin,SoftwareType,DateUTC
2013-02-06 00:00:00,30.0,14.5,29.77,North,3,1.8,8.0,52,0.00,,,0.04,VWS V14.01,2013-02-06 05:00:00,
2013-02-06 00:05:00,30.2,14.7,29.77,ENE,65,1.8,5.8,52,0.00,,,0.00,VWS V14.01,2013-02-06 05:05:00,
2013-02-06 00:10:00,30.2,14.7,29.77,NE,46,1.8,5.8,52,0.00,,,0.00,VWS V14.01,2013-02-06 05:10:00,
2013-02-06 00:15:00,30.2,14.7,29.77,NE,46,1.8,5.8,52,0.00,,,0.00,VWS V14.01,2013-02-06 05:15:00,
2013-02-06 00:20:00,30.4,14.9,29.74,NE,46,1.8,5.8,52,0.00,,,0.00,VWS V14.01,2013-02-06 05:20:00,
2013-02-06 00:25:00,30.4,14.9,29.74,ENE,60,1.8,5.8,52,0.00,,,0.00,VWS V14.01,2013-02-06 05:25:00,
2013-02-06 00:30:00,30.6,15.0,29.74,ENE,72,1.8,5.8,52,0.00,,,0.00,VWS V14.01,2013-02-06 05:30:00,
2013-02-06 00:35:00,30.6,15.0,29.74,ENE,69,1.8,5.8,52,0.00,,,0.00,VWS V14.01,2013-02-06 05:35:00,
2013-02-06 00:40:00,30.6,15.0,29.74,ENE,69,1.8,5.8,52,0.00,,,0.00,VWS V14.01,2013-02-06 05:40:00,
2013-02-06 00:45:00,30.7,15.2,29.74,ENE,69,4.4,5.8,52,0.00,,,0.00,VWS V14.01,2013-02-06 05:45:00,
2013-02-06 00:50:00,30.7,15.2,29.74,ENE,59,1.8,5.8,52,0.00,,,0.00,VWS V14.01,2013-02-06 05:50:00,
2013-02-06 00:55:00,30.7,15.2,29.74,NE,47,1.8,5.8,52,0.00,,,0.00,VWS V14.01,2013-02-06 05:55:00,
2013-02-06 01:00:00,30.9,15.4,29.74,North,353,4.4,4.4,52,0.00,,,0.00,VWS V14.01,2013-02-06 06:00:00,
2013-02-06 01:05:00,30.9,15.8,29.77,NE,56,1.8,4.9,53,0.00,,,0.00,VWS V14.01,2013-02-06 06:05:00,
2013-02-06 01:10:00,30.9,15.8,29.77,NE,47,4.4,5.8,53,0.00,,,0.00,VWS V14.01,2013-02-06 06:10:00,
2013-02-06 01:15:00,30.9,15.8,29.77,ENE,59,1.8,7.1,53,0.00,,,0.00,VWS V14.01,2013-02-06 06:15:00,
2013-02-06 01:20:00,30.9,15.8,29.77,NE,38,1.8,7.1,53,0.00,,,0.00,VWS V14.01,2013-02-06 06:20:00,
2013-02-06 01:25:00,30.9,15.8,29.77,ENE,60,1.8,7.1,53,0.00,,,0.00,VWS V14.01,2013-02-06 06:25:00,
2013-02-06 01:30:00,30.9,15.8,29.77,ENE,58,1.8,7.1,53,0.00,,,0.00,VWS V14.01,2013-02-06 06:30:00,
2013-02-06 01:35:00,30.9,15.8,29.77,NE,55,5.3,7.1,53,0.00,,,0.00,VWS V14.01,2013-02-06 06:35:00,
2013-02-06 01:40:00,30.9,15.8,29.77,NE,47,1.8,7.1,53,0.00,,,0.00,VWS V14.01,2013-02-06 06:40:00,
2013-02-06 01:45:00,30.9,15.8,29.77,NE,49,1.8,7.1,53,0.00,,,0.00,VWS V14.01,2013-02-06 06:45:00,
2013-02-06 01:50:00,30.9,15.8,29.77,ENE,62,4.0,7.1,53,0.00,,,0.00,VWS V14.01,2013-02-06 06:50:00,
2013-02-06 01:55:00,30.9,15.8,29.77,ENE,62,4.0,7.1,53,0.00,,,0.00,VWS V14.01,2013-02-06 06:55:00,
2013-02-06 02:00:00,30.9,15.8,29.77,ENE,61,5.8,7.1,53,0.00,,,0.00,VWS V14.01,2013-02-06 07:00:00,
2013-02-06 02:05:00,30.9,15.8,29.74,ENE,59,4.4,8.0,53,0.00,,,0.00,VWS V14.01,2013-02-06 07:05:00,
2013-02-06 02:10:00,30.9,15.8,29.74,ENE,64,5.3,8.0,53,0.00,,,0.00,VWS V14.01,2013-02-06 07:10:00,
2013-02-06 02:15:00,30.9,15.8,29.74,East,86,5.8,8.0,53,0.00,,,0.00,VWS V14.01,2013-02-06 07:15:00,
2013-02-06 02:20:00,30.9,16.2,29.74,ENE,67,4.9,8.0,54,0.00,,,0.00,VWS V14.01,2013-02-06 07:20:00,
2013-02-06 02:25:00,30.9,16.2,29.74,NE,45,1.8,8.0,54,0.00,,,0.00,VWS V14.01,2013-02-06 07:25:00,
2013-02-06 02:30:00,30.9,16.2,29.74,East,84,1.8,8.0,54,0.00,,,0.00,VWS V14.01,2013-02-06 07:30:00,
2013-02-06 02:35:00,30.9,16.2,29.77,ENE,76,4.0,8.0,54,0.00,,,0.00,VWS V14.01,2013-02-06 07:35:00,
2013-02-06 02:40:00,30.9,16.2,29.77,ENE,58,1.8,8.0,54,0.00,,,0.00,VWS V14.01,2013-02-06 07:40:00,
2013-02-06 02:45:00,31.1,16.4,29.77,ENE,76,1.8,8.0,54,0.00,,,0.00,VWS V14.01,2013-02-06 07:45:00,
2013-02-06 02:50:00,31.1,16.4,29.74,ENE,60,1.8,8.0,54,0.00,,,0.00,VWS V14.01,2013-02-06 07:50:00,
2013-02-06 02:55:00,31.1,16.4,29.74,ENE,59,1.8,8.0,54,0.00,,,0.00,VWS V14.01,2013-02-06 07:55:00,
2013-02-06 03:00:00,31.1,16.4,29.74,NE,52,1.8,8.0,54,0.00,,,0.00,VWS V14.01,2013-02-06 08:00:00,
2013-02-06 03:05:00,31.1,16.4,29.74,NE,52,1.8,4.0,54,0.00,,,0.00,VWS V14.01,2013-02-06 08:05:00,
2013-02-06 03:10:00,31.1,16.4,29.74,NE,52,1.8,4.4,54,0.00,,,0.00,VWS V14.01,2013-02-06 08:10:00,
2013-02-06 03:15:00,31.1,16.4,29.74,NE,40,4.9,5.8,54,0.00,,,0.00,VWS V14.01,2013-02-06 08:15:00,
2013-02-06 03:20:00,31.1,16.4,29.74,ENE,62,1.8,7.1,54,0.00,,,0.00,VWS V14.01,2013-02-06 08:20:00,
2013-02-06 03:25:00,31.1,16.4,29.74,NE,52,4.9,7.1,54,0.00,,,0.00,VWS V14.01,2013-02-06 08:25:00,
2013-02-06 03:30:00,31.1,16.8,29.74,ENE,71,4.9,7.1,55,0.00,,,0.00,VWS V14.01,2013-02-06 08:30:00,
2013-02-06 03:35:00,31.1,16.8,29.74,NE,51,4.9,7.1,55,0.00,,,0.00,VWS V14.01,2013-02-06 08:35:00,
2013-02-06 03:40:00,31.1,16.8,29.74,ENE,60,4.9,7.1,55,0.00,,,0.00,VWS V14.01,2013-02-06 08:40:00,
2013-02-06 03:45:00,31.1,16.8,29.74,NNW,344,1.8,7.1,55,0.00,,,0.00,VWS V14.01,2013-02-06 08:45:00,
2013-02-06 03:50:00,31.1,16.8,29.74,NE,44,1.8,7.1,55,0.00,,,0.00,VWS V14.01,2013-02-06 08:50:00,
2013-02-06 03:55:00,30.9,16.7,29.74,ENE,60,5.3,7.1,55,0.00,,,0.00,VWS V14.01,2013-02-06 08:55:00,
2013-02-06 04:00:00,30.9,16.7,29.74,NE,51,4.9,7.1,55,0.00,,,0.00,VWS V14.01,2013-02-06 09:00:00,
2013-02-06 04:05:00,30.9,17.1,29.74,NE,55,1.8,4.9,56,0.00,,,0.00,VWS V14.01,2013-02-06 09:05:00,
2013-02-06 04:10:00,30.7,16.9,29.74,NE,42,4.9,6.7,56,0.00,,,0.00,VWS V14.01,2013-02-06 09:10:00,
2013-02-06 04:15:00,30.7,16.9,29.74,NNE,24,1.8,6.7,56,0.00,,,0.00,VWS V14.01,2013-02-06 09:15:00,
2013-02-06 04:20:00,30.7,16.9,29.77,NE,50,1.8,6.7,56,0.00,,,0.00,VWS V14.01,2013-02-06 09:20:00,
2013-02-06 04:25:00,30.6,16.7,29.77,ENE,61,1.8,6.7,56,0.00,,,0.00,VWS V14.01,2013-02-06 09:25:00,
2013-02-06 04:30:00,30.6,16.7,29.77,NNE,29,4.0,6.7,56,0.00,,,0.00,VWS V14.01,2013-02-06 09:30:00,
2013-02-06 04:35:00,30.4,16.6,29.77,NE,41,1.8,6.7,56,0.00,,,0.00,VWS V14.01,2013-02-06 09:35:00,
2013-02-06 04:40:00,30.6,16.7,29.77,ENE,57,4.4,6.7,56,0.00,,,0.00,VWS V14.01,2013-02-06 09:40:00,
2013-02-06 04:45:00,30.4,16.6,29.77,NNE,13,4.0,6.7,56,0.00,,,0.00,VWS V14.01,2013-02-06 09:45:00,
2013-02-06 04:50:00,30.4,16.6,29.77,North,357,4.4,6.7,56,0.00,,,0.00,VWS V14.01,2013-02-06 09:50:00,
2013-02-06 04:55:00,30.2,16.8,29.77,NE,35,5.3,7.1,57,0.00,,,0.00,VWS V14.01,2013-02-06 09:55:00,
2013-02-06 05:00:00,30.2,16.8,29.77,ENE,60,4.9,7.1,57,0.00,,,0.00,VWS V14.01,2013-02-06 10:00:00,
2013-02-06 05:05:00,30.0,16.6,29.77,NE,39,6.7,6.7,57,0.00,,,0.00,VWS V14.01,2013-02-06 10:05:00,
2013-02-06 05:10:00,30.0,16.6,29.77,North,353,4.9,7.6,57,0.00,,,0.00,VWS V14.01,2013-02-06 10:10:00,
2013-02-06 05:15:00,30.0,17.0,29.77,NE,54,4.0,7.6,58,0.00,,,0.00,VWS V14.01,2013-02-06 10:15:00,
2013-02-06 05:20:00,30.0,17.0,29.77,NE,54,5.8,7.6,58,0.00,,,0.00,VWS V14.01,2013-02-06 10:20:00,
2013-02-06 05:25:00,30.0,16.6,29.77,NNE,21,5.3,7.6,57,0.00,,,0.00,VWS V14.01,2013-02-06 10:25:00,
2013-02-06 05:30:00,29.8,16.5,29.77,North,6,1.8,7.6,57,0.00,,,0.00,VWS V14.01,2013-02-06 10:30:00,
2013-02-06 05:35:00,29.8,16.5,29.77,NNE,32,1.8,7.6,57,0.00,,,0.00,VWS V14.01,2013-02-06 10:35:00,
2013-02-06 05:40:00,29.7,16.3,29.77,NE,52,5.8,7.6,57,0.00,,,0.00,VWS V14.01,2013-02-06 10:40:00,
2013-02-06 05:45:00,29.7,16.7,29.77,NE,49,1.8,7.6,58,0.00,,,0.00,VWS V14.01,2013-02-06 10:45:00,
2013-02-06 05:50:00,29.7,16.7,29.77,NE,48,1.8,7.6,58,0.00,,,0.00,VWS V14.01,2013-02-06 10:50:00,
2013-02-06 05:55:00,29.7,16.7,29.77,NNE,21,4.0,7.6,58,0.00,,,0.00,VWS V14.01,2013-02-06 10:55:00,
2013-02-06 06:00:00,29.7,16.7,29.77,ENE,76,4.4,8.0,58,0.00,,,0.04,VWS V14.01,2013-02-06 11:00:00,
2013-02-06 06:05:00,29.7,16.7,29.77,NNE,31,4.0,5.8,58,0.00,,,0.00,VWS V14.01,2013-02-06 11:05:00,
2013-02-06 06:10:00,29.7,16.7,29.77,ENE,65,1.8,6.7,58,0.00,,,0.00,VWS V14.01,2013-02-06 11:10:00,
2013-02-06 06:15:00,29.7,16.7,29.77,ENE,59,7.6,7.6,58,0.00,,,0.00,VWS V14.01,2013-02-06 11:15:00,
2013-02-06 06:20:00,29.7,16.7,29.80,ENE,61,1.8,7.6,58,0.00,,,0.00,VWS V14.01,2013-02-06 11:20:00,
2013-02-06 06:25:00,29.7,16.7,29.80,NE,38,1.8,7.6,58,0.00,,,0.00,VWS V14.01,2013-02-06 11:25:00,
2013-02-06 06:30:00,29.7,16.7,29.80,North,0,1.8,7.6,58,0.00,,,0.00,VWS V14.01,2013-02-06 11:30:00,
2013-02-06 06:35:00,29.7,16.7,29.80,NNE,24,1.8,7.6,58,0.00,,,0.00,VWS V14.01,2013-02-06 11:35:00,
2013-02-06 06:40:00,29.7,16.7,29.80,NNE,25,1.8,7.6,58,0.00,,,0.00,VWS V14.01,2013-02-06 11:40:00,
2013-02-06 06:45:00,29.7,16.7,29.80,NNE,25,1.8,7.6,58,0.00,,,0.00,VWS V14.01,2013-02-06 11:45:00,
2013-02-06 06:50:00,29.7,16.7,29.80,NNE,25,1.8,7.6,58,0.00,,,0.00,VWS V14.01,2013-02-06 11:50:00,
2013-02-06 06:55:00,29.7,16.7,29.80,NNE,25,1.8,7.6,58,0.00,,,0.00,VWS V14.01,2013-02-06 11:55:00,
2013-02-06 07:00:00,29.7,16.7,29.80,NNE,25,1.8,7.6,58,0.00,,,0.00,VWS V14.01,2013-02-06 12:00:00,
2013-02-06 07:05:00,29.8,16.9,29.80,NNE,25,1.8,1.8,58,0.00,,,0.00,VWS V14.01,2013-02-06 12:05:00,
2013-02-06 07:10:00,29.8,16.9,29.80,NNE,25,1.8,1.8,58,0.00,,,0.00,VWS V14.01,2013-02-06 12:10:00,
2013-02-06 07:15:00,29.8,16.9,29.80,NNE,25,1.8,1.8,58,0.00,,,0.00,VWS V14.01,2013-02-06 12:15:00,
2013-02-06 07:20:00,29.8,16.9,29.80,NNE,25,1.8,1.8,58,0.00,,,0.00,VWS V14.01,2013-02-06 12:20:00,
2013-02-06 07:25:00,30.0,17.0,29.80,NNE,25,1.8,1.8,58,0.00,,,0.00,VWS V14.01,2013-02-06 12:25:00,
2013-02-06 07:30:00,30.2,17.2,29.80,NNE,25,1.8,1.8,58,0.00,,,0.00,VWS V14.01,2013-02-06 12:30:00,
2013-02-06 07:35:00,30.6,17.1,29.83,NNE,25,1.8,1.8,57,0.00,,,0.00,VWS V14.01,2013-02-06 12:35:00,
2013-02-06 07:40:00,30.7,17.7,29.83,NNE,25,1.8,1.8,58,0.00,,,0.00,VWS V14.01,2013-02-06 12:40:00,
2013-02-06 07:45:00,31.1,18.1,29.83,NNE,25,1.8,1.8,58,0.00,,,0.00,VWS V14.01,2013-02-06 12:45:00,
2013-02-06 07:50:00,31.1,17.7,29.83,NNE,25,1.8,1.8,57,0.00,,,0.00,VWS V14.01,2013-02-06 12:50:00,
2013-02-06 07:55:00,31.1,17.7,29.83,NNE,25,1.8,1.8,57,0.00,,,0.00,VWS V14.01,2013-02-06 12:55:00,
2013-02-06 08:00:00,30.9,17.5,29.83,NNE,24,1.8,5.3,57,0.00,,,0.00,VWS V14.01,2013-02-06 13:00:00,
2013-02-06 08:05:00,31.1,17.7,29.83,NNE,24,4.4,4.9,57,0.00,,,0.00,VWS V14.01,2013-02-06 13:05:00,
2013-02-06 08:10:00,31.1,17.7,29.83,North,353,4.4,5.8,57,0.00,,,0.00,VWS V14.01,2013-02-06 13:10:00,
2013-02-06 08:15:00,31.3,17.8,29.83,NNW,342,1.8,7.1,57,0.00,,,0.00,VWS V14.01,2013-02-06 13:15:00,
2013-02-06 08:20:00,31.6,18.6,29.83,NW,321,5.3,7.1,58,0.00,,,0.00,VWS V14.01,2013-02-06 13:20:00,
2013-02-06 08:25:00,31.8,18.3,29.83,NNW,345,1.8,7.1,57,0.00,,,0.00,VWS V14.01,2013-02-06 13:25:00,
2013-02-06 08:30:00,32.0,18.5,29.83,NNW,345,1.8,7.1,57,0.00,,,0.00,VWS V14.01,2013-02-06 13:30:00,
2013-02-06 08:35:00,32.0,18.5,29.83,NNW,345,1.8,7.1,57,0.00,,,0.00,VWS V14.01,2013-02-06 13:35:00,
2013-02-06 08:40:00,31.8,18.3,29.83,NNW,345,1.8,7.1,57,0.00,,,0.00,VWS V14.01,2013-02-06 13:40:00,
2013-02-06 08:45:00,32.0,18.5,29.83,NNW,345,1.8,7.1,57,0.00,,,0.00,VWS V14.01,2013-02-06 13:45:00,
2013-02-06 08:50:00,32.2,18.7,29.85,NNW,345,1.8,7.1,57,0.00,,,0.00,VWS V14.01,2013-02-06 13:50:00,
2013-02-06 08:55:00,32.2,18.3,29.85,NNW,345,1.8,7.1,56,0.00,,,0.00,VWS V14.01,2013-02-06 13:55:00,
2013-02-06 09:00:00,32.4,18.8,29.85,NNW,345,1.8,7.1,57,0.00,,,0.00,VWS V14.01,2013-02-06 14:00:00,
2013-02-06 09:05:00,32.4,18.4,29.85,NNW,345,1.8,1.8,56,0.00,,,0.00,VWS V14.01,2013-02-06 14:05:00,
2013-02-06 09:10:00,32.5,18.6,29.85,NNW,345,1.8,1.8,56,0.00,,,0.00,VWS V14.01,2013-02-06 14:10:00,
2013-02-06 09:15:00,32.5,18.6,29.85,NNW,345,1.8,1.8,56,0.00,,,0.00,VWS V14.01,2013-02-06 14:15:00,
2013-02-06 09:20:00,32.7,18.8,29.85,NNW,345,1.8,1.8,56,0.00,,,0.00,VWS V14.01,2013-02-06 14:20:00,
2013-02-06 09:25:00,33.1,19.1,29.85,NNW,345,1.8,1.8,56,0.00,,,0.00,VWS V14.01,2013-02-06 14:25:00,
2013-02-06 09:30:00,33.4,19.4,29.85,NNW,345,1.8,1.8,56,0.00,,,0.00,VWS V14.01,2013-02-06 14:30:00,
2013-02-06 09:35:00,33.4,19.0,29.85,NNW,345,1.8,1.8,55,0.00,,,0.00,VWS V14.01,2013-02-06 14:35:00,
2013-02-06 09:40:00,33.3,18.9,29.85,NNW,345,1.8,1.8,55,0.00,,,0.00,VWS V14.01,2013-02-06 14:40:00,
2013-02-06 09:45:00,33.1,18.3,29.85,NW,310,1.8,4.0,54,0.00,,,0.00,VWS V14.01,2013-02-06 14:45:00,
2013-02-06 09:50:00,33.1,18.3,29.85,NW,310,1.8,4.0,54,0.00,,,0.00,VWS V14.01,2013-02-06 14:50:00,
2013-02-06 09:55:00,32.9,18.1,29.85,NW,310,1.8,4.0,54,0.00,,,0.00,VWS V14.01,2013-02-06 14:55:00,
2013-02-06 10:00:00,33.3,18.4,29.85,NW,310,1.8,4.0,54,0.00,,,0.00,VWS V14.01,2013-02-06 15:00:00,
2013-02-06 10:05:00,33.6,18.8,29.85,West,270,4.0,4.9,54,0.00,,,0.00,VWS V14.01,2013-02-06 15:05:00,
2013-02-06 10:10:00,34.2,19.3,29.85,West,270,1.8,4.9,54,0.00,,,0.00,VWS V14.01,2013-02-06 15:10:00,
2013-02-06 10:15:00,34.2,18.8,29.85,West,270,5.3,5.3,53,0.00,,,0.00,VWS V14.01,2013-02-06 15:15:00,
2013-02-06 10:20:00,34.0,18.7,29.85,WNW,295,4.9,5.8,53,0.00,,,0.00,VWS V14.01,2013-02-06 15:20:00,
2013-02-06 10:25:00,34.2,18.8,29.85,SW,227,4.4,5.8,53,0.00,,,0.00,VWS V14.01,2013-02-06 15:25:00,
2013-02-06 10:30:00,34.3,18.5,29.85,West,279,6.7,6.7,52,0.00,,,0.00,VWS V14.01,2013-02-06 15:30:00,
2013-02-06 10:35:00,34.0,18.2,29.85,WNW,283,7.1,7.6,52,0.00,,,0.00,VWS V14.01,2013-02-06 15:35:00,
2013-02-06 10:40:00,33.6,17.9,29.85,WNW,284,6.2,8.0,52,0.00,,,0.00,VWS V14.01,2013-02-06 15:40:00,
2013-02-06 10:45:00,33.4,17.7,29.85,WNW,282,6.2,8.0,52,0.00,,,0.00,VWS V14.01,2013-02-06 15:45:00,
2013-02-06 10:50:00,33.6,17.9,29.85,NW,310,6.7,8.0,52,0.00,,,0.00,VWS V14.01,2013-02-06 15:50:00,
2013-02-06 10:55:00,34.2,18.4,29.85,West,277,4.9,8.0,52,0.00,,,0.00,VWS V14.01,2013-02-06 15:55:00,
2013-02-06 11:00:00,34.9,19.1,29.85,WNW,285,5.3,8.0,52,0.00,,,0.00,VWS V14.01,2013-02-06 16:00:00,
2013-02-06 11:05:00,35.2,18.9,29.85,NW,308,5.3,5.8,51,0.00,,,0.00,VWS V14.01,2013-02-06 16:05:00,
2013-02-06 11:10:00,35.4,19.1,29.85,WNW,282,4.9,6.7,51,0.00,,,0.00,VWS V14.01,2013-02-06 16:10:00,
2013-02-06 11:15:00,35.4,19.1,29.85,West,278,5.8,6.7,51,0.00,,,0.00,VWS V14.01,2013-02-06 16:15:00,
2013-02-06 11:20:00,35.6,18.8,29.85,West,280,4.9,6.7,50,0.00,,,0.00,VWS V14.01,2013-02-06 16:20:00,
2013-02-06 11:25:00,36.1,19.3,29.85,West,268,5.3,6.7,50,0.00,,,0.00,VWS V14.01,2013-02-06 16:25:00,
2013-02-06 11:30:00,36.5,19.2,29.85,West,275,6.7,6.7,49,0.00,,,0.00,VWS V14.01,2013-02-06 16:30:00,
2013-02-06 11:35:00,36.3,18.5,29.85,West,274,6.7,7.1,48,0.00,,,0.00,VWS V14.01,2013-02-06 16:35:00,
2013-02-06 11:40:00,36.3,18.0,29.85,WNW,283,6.2,7.6,47,0.00,,,0.00,VWS V14.01,2013-02-06 16:40:00,
2013-02-06 11:45:00,36.5,18.2,29.85,WNW,290,6.7,7.6,47,0.00,,,0.00,VWS V14.01,2013-02-06 16:45:00,
2013-02-06 11:50:00,36.9,18.5,29.85,West,278,6.7,7.6,47,0.00,,,0.00,VWS V14.01,2013-02-06 16:50:00,
2013-02-06 11:55:00,37.0,17.7,29.85,WNW,288,6.7,8.0,45,0.00,,,0.00,VWS V14.01,2013-02-06 16:55:00,
2013-02-06 12:00:00,37.2,17.3,29.85,WSW,257,5.8,8.0,44,0.00,,,0.00,VWS V14.01,2013-02-06 17:00:00,
2013-02-06 12:05:00,37.8,17.3,29.85,WNW,293,6.7,8.0,43,0.00,,,0.00,VWS V14.01,2013-02-06 17:05:00,
2013-02-06 12:10:00,38.7,18.1,29.85,WNW,291,5.3,8.5,43,0.00,,,0.00,VWS V14.01,2013-02-06 17:10:00,
2013-02-06 12:15:00,39.2,18.0,29.85,SW,225,5.8,8.5,42,0.00,,,0.00,VWS V14.01,2013-02-06 17:15:00,
2013-02-06 12:20:00,39.2,18.0,29.85,WNW,287,5.8,8.5,42,0.00,,,0.00,VWS V14.01,2013-02-06 17:20:00,
2013-02-06 12:25:00,38.8,17.7,29.85,WSW,237,5.8,8.5,42,0.00,,,0.00,VWS V14.01,2013-02-06 17:25:00,
2013-02-06 12:30:00,39.0,17.9,29.85,WSW,239,5.3,8.5,42,0.00,,,0.00,VWS V14.01,2013-02-06 17:30:00,
2013-02-06 12:35:00,39.2,17.5,29.85,WNW,291,4.4,8.5,41,0.00,,,0.00,VWS V14.01,2013-02-06 17:35:00,
2013-02-06 12:40:00,39.2,17.5,29.85,WSW,237,6.2,9.4,41,0.00,,,0.00,VWS V14.01,2013-02-06 17:40:00,
2013-02-06 12:45:00,39.4,17.1,29.85,SSW,212,5.8,9.4,40,0.00,,,0.00,VWS V14.01,2013-02-06 17:45:00,
2013-02-06 12:50:00,39.4,17.1,29.83,WSW,258,5.3,9.4,40,0.00,,,0.00,VWS V14.01,2013-02-06 17:50:00,
2013-02-06 12:55:00,39.6,17.2,29.83,WSW,248,6.7,9.4,40,0.00,,,0.00,VWS V14.01,2013-02-06 17:55:00,
2013-02-06 13:00:00,39.7,17.4,29.83,WSW,251,4.4,9.4,40,0.00,,,0.00,VWS V14.01,2013-02-06 18:00:00,
2013-02-06 13:05:00,40.1,17.7,29.83,WSW,245,7.6,9.4,40,0.00,,,0.00,VWS V14.01,2013-02-06 18:05:00,
2013-02-06 13:10:00,40.5,17.5,29.83,West,267,5.3,10.0,39,0.00,,,0.00,VWS V14.01,2013-02-06 18:10:00,
2013-02-06 13:15:00,40.6,17.6,29.83,WSW,256,5.8,10.0,39,0.00,,,0.00,VWS V14.01,2013-02-06 18:15:00,
2013-02-06 13:20:00,41.0,17.4,29.83,West,266,7.1,10.0,38,0.00,,,0.00,VWS V14.01,2013-02-06 18:20:00,
2013-02-06 13:25:00,41.4,17.7,29.83,West,266,8.0,10.0,38,0.00,,,0.00,VWS V14.01,2013-02-06 18:25:00,
2013-02-06 13:30:00,41.4,15.8,29.83,WNW,294,6.7,10.0,35,0.00,,,0.00,VWS V14.01,2013-02-06 18:30:00,
2013-02-06 13:35:00,40.8,15.3,29.83,WSW,240,5.8,10.0,35,0.00,,,0.00,VWS V14.01,2013-02-06 18:35:00,
2013-02-06 13:39:00,40.8,15.3,29.83,West,275,5.3,10.0,35,0.00,,,0.00,VWS V14.01,2013-02-06 18:39:00,
2013-02-06 13:45:00,41.0,15.5,29.83,West,262,7.1,10.0,35,0.00,,,0.00,VWS V14.01,2013-02-06 18:45:00,
2013-02-06 13:49:00,41.4,15.1,29.83,WSW,252,5.3,10.0,34,0.00,,,0.00,VWS V14.01,2013-02-06 18:49:00,
2013-02-06 13:54:00,41.5,14.6,29.83,WNW,287,8.9,10.0,33,0.00,,,0.00,VWS V14.01,2013-02-06 18:54:00,
2013-02-06 13:59:00,41.2,12.9,29.83,WNW,297,9.8,11.4,31,0.00,,,0.00,VWS V14.01,2013-02-06 18:59:00,
2013-02-06 14:00:00,41.2,12.9,29.83,NW,304,9.8,11.4,31,0.00,,,0.00,VWS V15.00,2013-02-06 19:00:00,
2013-02-06 14:04:00,41.2,12.1,29.85,West,277,10.5,11.8,30,0.00,,,0.00,VWS V14.01,2013-02-06 19:04:00,
2013-02-06 14:09:00,41.0,12.0,29.85,WNW,287,10.0,12.3,30,0.00,,,0.00,VWS V14.01,2013-02-06 19:09:00,
2013-02-06 14:14:00,40.8,11.8,29.85,NW,305,9.4,12.3,30,0.00,,,0.00,VWS V14.01,2013-02-06 19:14:00,
2013-02-06 14:19:00,40.1,11.2,29.85,West,277,10.5,12.3,30,0.00,,,0.00,VWS V14.01,2013-02-06 19:19:00,
2013-02-06 14:24:00,39.7,10.9,29.85,WNW,293,10.0,12.3,30,0.00,,,0.00,VWS V14.01,2013-02-06 19:24:00,
2013-02-06 14:29:00,39.4,10.5,29.85,WNW,284,8.0,12.3,30,0.00,,,0.00,VWS V14.01,2013-02-06 19:29:00,
2013-02-06 14:34:00,39.0,10.2,29.85,WNW,285,7.6,12.3,30,0.00,,,0.00,VWS V14.01,2013-02-06 19:34:00,
2013-02-06 14:39:00,38.8,10.1,29.85,West,261,5.8,12.3,30,0.00,,,0.00,VWS V14.01,2013-02-06 19:39:00,
2013-02-06 14:44:00,39.2,10.4,29.85,NNW,327,8.0,12.3,30,0.00,,,0.00,VWS V14.01,2013-02-06 19:44:00,
2013-02-06 14:49:00,39.2,9.6,29.85,NW,326,11.8,12.3,29,0.00,,,0.00,VWS V14.01,2013-02-06 19:49:00,
2013-02-06 14:54:00,39.2,9.6,29.85,NNW,339,11.8,14.1,29,0.00,,,0.00,VWS V14.01,2013-02-06 19:54:00,
2013-02-06 14:59:00,38.8,9.3,29.85,North,4,7.6,14.1,29,0.00,,,0.00,VWS V14.01,2013-02-06 19:59:00,
2013-02-06 15:00:00,38.8,9.3,29.85,NNW,343,9.4,14.1,29,0.00,,,0.00,VWS V15.00,2013-02-06 20:00:00,
2013-02-06 15:04:00,38.8,9.3,29.85,West,265,8.9,12.7,29,0.00,,,0.00,VWS V14.01,2013-02-06 20:04:00,
2013-02-06 15:09:00,39.2,9.6,29.85,North,8,8.0,14.1,29,0.00,,,0.00,VWS V14.01,2013-02-06 20:09:00,
2013-02-06 15:14:00,39.4,9.0,29.85,WNW,288,7.1,14.1,28,0.00,,,0.00,VWS V14.01,2013-02-06 20:14:00,
2013-02-06 15:19:00,39.6,9.9,29.88,West,278,4.9,18.1,29,0.00,,,0.00,VWS V14.01,2013-02-06 20:19:00,
2013-02-06 15:24:00,40.1,9.6,29.88,North,0,9.4,18.1,28,0.00,,,0.00,VWS V14.01,2013-02-06 20:24:00,
2013-02-06 15:29:00,39.9,9.5,29.88,NNE,33,11.8,18.1,28,0.00,,,0.00,VWS V14.01,2013-02-06 20:29:00,
2013-02-06 15:34:00,40.3,9.8,29.88,NW,307,6.7,18.1,28,0.00,,,0.00,VWS V14.01,2013-02-06 20:34:00,
2013-02-06 15:39:00,40.5,9.9,29.88,NNW,328,6.7,18.1,28,0.00,,,0.00,VWS V14.01,2013-02-06 20:39:00,
2013-02-06 15:44:00,41.0,10.4,29.88,West,280,10.0,18.1,28,0.00,,,0.00,VWS V14.01,2013-02-06 20:44:00,
2013-02-06 15:49:00,41.0,10.4,29.88,NNW,337,7.6,18.1,28,0.00,,,0.00,VWS V14.01,2013-02-06 20:49:00,
2013-02-06 15:54:00,40.8,10.2,29.88,WNW,293,5.3,18.1,28,0.00,,,0.00,VWS V14.01,2013-02-06 20:54:00,
2013-02-06 15:59:00,40.6,10.1,29.88,NNW,334,7.6,18.1,28,0.00,,,0.00,VWS V14.01,2013-02-06 20:59:00,
2013-02-06 16:00:00,40.6,10.1,29.88,West,260,6.7,18.1,28,0.00,,,0.00,VWS V15.00,2013-02-06 21:00:00,
2013-02-06 16:04:00,40.1,9.6,29.88,NW,321,8.0,8.0,28,0.00,,,0.00,VWS V14.01,2013-02-06 21:04:00,
2013-02-06 16:09:00,38.8,9.3,29.88,WNW,290,4.9,10.5,29,0.00,,,0.00,VWS V14.01,2013-02-06 21:09:00,
2013-02-06 16:14:00,38.1,8.7,29.88,North,0,5.8,10.5,29,0.00,,,0.00,VWS V14.01,2013-02-06 21:14:00,
2013-02-06 16:19:00,38.1,8.7,29.88,NW,307,8.9,10.5,29,0.00,,,0.00,VWS V14.01,2013-02-06 21:19:00,
2013-02-06 16:24:00,38.3,8.8,29.88,NW,311,10.0,10.5,29,0.00,,,0.00,VWS V14.01,2013-02-06 21:24:00,
2013-02-06 16:29:00,38.5,9.0,29.88,West,276,7.1,10.5,29,0.00,,,0.00,VWS V14.01,2013-02-06 21:29:00,
2013-02-06 16:34:00,38.3,8.8,29.91,NW,307,4.4,10.5,29,0.00,,,0.00,VWS V14.01,2013-02-06 21:34:00,
2013-02-06 16:39:00,37.9,8.5,29.91,North,357,6.2,10.5,29,0.00,,,0.00,VWS V14.01,2013-02-06 21:39:00,
2013-02-06 16:44:00,37.4,8.1,29.91,NNE,32,10.5,10.5,29,0.00,,,0.00,VWS V14.01,2013-02-06 21:44:00,
2013-02-06 16:49:00,36.9,7.6,29.91,NNE,15,10.5,12.3,29,0.00,,,0.00,VWS V14.01,2013-02-06 21:49:00,
2013-02-06 16:54:00,36.3,7.1,29.91,NNW,341,7.1,12.3,29,0.00,,,0.00,VWS V14.01,2013-02-06 21:54:00,
2013-02-06 16:59:00,35.8,6.7,29.91,NNW,330,8.0,12.3,29,0.00,,,0.00,VWS V14.01,2013-02-06 21:59:00,
2013-02-06 17:00:00,35.8,6.7,29.91,North,3,7.1,12.3,29,0.00,,,0.00,VWS V15.00,2013-02-06 22:00:00,
2013-02-06 17:04:00,35.6,7.2,29.91,North,349,6.7,10.5,30,0.00,,,0.00,VWS V14.01,2013-02-06 22:04:00,
2013-02-06 17:09:00,35.2,6.9,29.91,North,353,5.3,10.5,30,0.00,,,0.00,VWS V14.01,2013-02-06 22:09:00,
2013-02-06 17:14:00,35.1,6.8,29.91,West,280,4.4,10.5,30,0.00,,,0.00,VWS V14.01,2013-02-06 22:14:00,
2013-02-06 17:19:00,34.7,6.4,29.91,SW,231,5.3,10.5,30,0.00,,,0.00,VWS V14.01,2013-02-06 22:19:00,
2013-02-06 17:24:00,34.5,6.3,29.91,NNW,338,4.0,10.5,30,0.00,,,0.00,VWS V14.01,2013-02-06 22:24:00,
2013-02-06 17:29:00,34.3,6.9,29.91,NNW,339,4.9,10.5,31,0.00,,,0.00,VWS V14.01,2013-02-06 22:29:00,
2013-02-06 17:34:00,34.3,6.9,29.94,WNW,290,5.3,10.5,31,0.00,,,0.00,VWS V14.01,2013-02-06 22:34:00,
2013-02-06 17:39:00,34.2,6.7,29.94,NNW,342,5.8,10.5,31,0.00,,,0.00,VWS V14.01,2013-02-06 22:39:00,
2013-02-06 17:44:00,34.2,6.7,29.94,WNW,293,4.4,10.5,31,0.00,,,0.00,VWS V14.01,2013-02-06 22:44:00,
2013-02-06 17:49:00,34.0,6.5,29.94,North,0,4.9,10.5,31,0.00,,,0.00,VWS V14.01,2013-02-06 22:49:00,
2013-02-06 17:54:00,34.0,6.5,29.94,West,278,4.9,10.5,31,0.00,,,0.00,VWS V14.01,2013-02-06 22:54:00,
2013-02-06 17:59:00,33.8,6.4,29.94,NW,317,4.9,10.5,31,0.00,,,0.00,VWS V14.01,2013-02-06 22:59:00,
2013-02-06 18:00:00,33.8,6.4,29.94,West,276,7.1,10.5,31,0.00,,,0.00,VWS V15.00,2013-02-06 23:00:00,
2013-02-06 18:04:00,33.8,6.4,29.94,North,353,4.9,7.1,31,0.00,,,0.00,VWS V14.01,2013-02-06 23:04:00,
2013-02-06 18:09:00,33.8,6.4,29.94,West,273,5.8,8.0,31,0.00,,,0.00,VWS V14.01,2013-02-06 23:09:00,
2013-02-06 18:14:00,33.6,6.2,29.94,WNW,301,4.9,8.0,31,0.00,,,0.00,VWS V14.01,2013-02-06 23:14:00,
2013-02-06 18:19:00,33.4,6.1,29.97,NNW,327,5.3,8.0,31,0.00,,,0.00,VWS V14.01,2013-02-06 23:19:00,
2013-02-06 18:24:00,33.4,6.1,29.97,NNW,348,4.9,9.4,31,0.00,,,0.00,VWS V14.01,2013-02-06 23:24:00,
2013-02-06 18:29:00,33.4,6.1,29.97,North,353,4.9,9.4,31,0.00,,,0.00,VWS V14.01,2013-02-06 23:29:00,
2013-02-06 18:34:00,33.3,5.9,29.97,WNW,289,5.8,9.4,31,0.00,,,0.00,VWS V14.01,2013-02-06 23:34:00,
2013-02-06 18:39:00,33.1,5.8,29.97,NW,319,4.4,9.4,31,0.00,,,0.00,VWS V14.01,2013-02-06 23:39:00,
2013-02-06 18:44:00,33.1,5.8,29.97,WSW,251,1.8,9.4,31,0.00,,,0.00,VWS V14.01,2013-02-06 23:44:00,
2013-02-06 18:49:00,32.7,5.4,29.97,North,357,4.4,9.4,31,0.00,,,0.00,VWS V14.01,2013-02-06 23:49:00,
2013-02-06 18:54:00,32.7,5.4,29.97,North,353,4.9,9.4,31,0.00,,,0.00,VWS V14.01,2013-02-06 23:54:00,
2013-02-06 18:59:00,32.7,5.4,29.97,North,353,7.1,9.8,31,0.00,,,0.00,VWS V14.01,2013-02-06 23:59:00,
2013-02-06 19:00:00,32.7,5.4,29.97,NNW,336,7.1,9.8,31,0.00,,,0.00,VWS V15.00,2013-02-07 00:00:00,
2013-02-06 19:04:00,32.9,5.6,29.97,North,353,7.1,10.0,31,0.00,,,0.00,VWS V14.01,2013-02-07 00:04:00,
2013-02-06 19:09:00,32.9,5.6,29.97,NW,305,8.0,11.4,31,0.00,,,0.00,VWS V14.01,2013-02-07 00:09:00,
2013-02-06 19:14:00,33.1,5.8,29.97,NW,325,9.4,11.8,31,0.00,,,0.00,VWS V14.01,2013-02-07 00:14:00,
2013-02-06 19:19:00,33.1,5.8,30.00,NW,304,5.8,14.9,31,0.00,,,0.00,VWS V14.01,2013-02-07 00:19:00,
2013-02-06 19:24:00,33.1,5.0,30.00,WNW,291,5.8,14.9,30,0.00,,,0.00,VWS V14.01,2013-02-07 00:24:00,
2013-02-06 19:29:00,33.1,5.0,30.00,NW,322,9.8,14.9,30,0.00,,,0.00,VWS V14.01,2013-02-07 00:29:00,
2013-02-06 19:34:00,32.9,4.9,30.00,NNW,342,7.1,14.9,30,0.00,,,0.00,VWS V14.01,2013-02-07 00:34:00,
2013-02-06 19:39:00,32.9,4.9,30.00,NNW,328,7.1,14.9,30,0.00,,,0.00,VWS V14.01,2013-02-07 00:39:00,
2013-02-06 19:44:00,32.9,4.9,30.00,North,353,10.9,14.9,30,0.00,,,0.00,VWS V14.01,2013-02-07 00:44:00,
2013-02-06 19:49:00,32.7,4.7,30.00,NNW,335,9.8,14.9,30,0.00,,,0.00,VWS V14.01,2013-02-07 00:49:00,
2013-02-06 19:54:00,32.7,4.7,30.00,North,10,10.0,14.9,30,0.00,,,0.00,VWS V14.01,2013-02-07 00:54:00,
2013-02-06 19:59:00,32.7,4.7,30.00,NNW,330,8.0,14.9,30,0.00,,,0.00,VWS V14.01,2013-02-07 00:59:00,
2013-02-06 20:00:00,32.7,4.7,30.00,NW,319,8.9,14.9,30,0.00,,,0.00,VWS V15.00,2013-02-07 01:00:00,
2013-02-06 20:04:00,32.7,4.7,30.00,North,357,10.5,14.9,30,0.00,,,0.00,VWS V14.01,2013-02-07 01:04:00,
2013-02-06 20:09:00,32.5,4.6,30.00,North,357,12.7,14.9,30,0.00,,,0.00,VWS V14.01,2013-02-07 01:09:00,
2013-02-06 20:14:00,32.5,4.6,30.00,North,357,10.0,16.7,30,0.00,,,0.00,VWS V14.01,2013-02-07 01:14:00,
2013-02-06 20:19:00,32.4,2.9,30.03,NW,326,17.2,17.2,28,0.00,,,0.00,VWS V14.01,2013-02-07 01:19:00,
2013-02-06 20:24:00,32.4,2.9,30.03,NW,316,14.1,17.2,28,0.00,,,0.00,VWS V14.01,2013-02-07 01:24:00,
2013-02-06 20:29:00,32.4,2.9,30.03,North,4,14.9,17.2,28,0.00,,,0.00,VWS V14.01,2013-02-07 01:29:00,
2013-02-06 20:34:00,32.2,2.8,30.03,North,0,11.8,17.2,28,0.00,,,0.00,VWS V14.01,2013-02-07 01:34:00,
2013-02-06 20:39:00,32.2,2.8,30.03,North,357,10.5,17.2,28,0.00,,,0.00,VWS V14.01,2013-02-07 01:39:00,
2013-02-06 20:44:00,31.8,2.4,30.03,NW,316,7.1,17.2,28,0.00,,,0.00,VWS V14.01,2013-02-07 01:44:00,
2013-02-06 20:49:00,31.6,2.3,30.06,NW,313,10.0,17.2,28,0.00,,,0.00,VWS V14.01,2013-02-07 01:49:00,
2013-02-06 20:54:00,31.6,2.3,30.06,North,353,10.0,17.2,28,0.00,,,0.00,VWS V14.01,2013-02-07 01:54:00,
2013-02-06 20:59:00,31.6,2.3,30.06,North,0,14.1,17.2,28,0.00,,,0.00,VWS V14.01,2013-02-07 01:59:00,
2013-02-06 21:00:00,31.6,2.3,30.06,NW,314,8.0,17.2,28,0.00,,,0.00,VWS V15.00,2013-02-07 02:00:00,
2013-02-06 21:04:00,31.5,2.1,30.06,North,350,10.5,14.9,28,0.00,,,0.00,VWS V14.01,2013-02-07 02:04:00,
2013-02-06 21:09:00,31.3,2.0,30.06,NNW,335,14.1,14.9,28,0.00,,,0.00,VWS V14.01,2013-02-07 02:09:00,
2013-02-06 21:14:00,31.3,2.0,30.06,North,349,12.3,14.9,28,0.00,,,0.00,VWS V14.01,2013-02-07 02:14:00,
2013-02-06 21:19:00,31.1,1.8,30.06,NNE,22,9.4,14.9,28,0.00,,,0.00,VWS V14.01,2013-02-07 02:19:00,
2013-02-06 21:24:00,31.1,1.8,30.06,North,357,8.0,16.7,28,0.00,,,0.00,VWS V14.01,2013-02-07 02:24:00,
2013-02-06 21:29:00,30.9,1.7,30.06,NNW,345,7.6,16.7,28,0.00,,,0.00,VWS V14.01,2013-02-07 02:29:00,
2013-02-06 21:34:00,30.7,-0.9,30.06,North,353,11.8,16.7,25,0.00,,,0.00,VWS V14.01,2013-02-07 02:34:00,
2013-02-06 21:39:00,30.7,-0.9,30.06,North,357,8.9,16.7,25,0.00,,,0.00,VWS V14.01,2013-02-07 02:39:00,
2013-02-06 21:44:00,30.6,-1.1,30.06,North,357,7.6,16.7,25,0.00,,,0.00,VWS V14.01,2013-02-07 02:44:00,
2013-02-06 21:49:00,30.6,1.4,30.09,NNW,327,10.0,16.7,28,0.00,,,0.00,VWS V14.01,2013-02-07 02:49:00,
2013-02-06 21:54:00,30.4,-1.2,30.09,NNW,348,12.7,16.7,25,0.00,,,0.00,VWS V14.01,2013-02-07 02:54:00,
2013-02-06 21:59:00,30.2,-1.4,30.09,NNW,333,10.9,16.7,25,0.00,,,0.00,VWS V14.01,2013-02-07 02:59:00,
2013-02-06 22:00:00,30.2,-1.4,30.09,NW,318,12.3,16.7,25,0.00,,,0.00,VWS V15.00,2013-02-07 03:00:00,
2013-02-06 22:04:00,30.2,-1.4,30.09,NNW,345,14.9,19.2,25,0.00,,,0.00,VWS V14.01,2013-02-07 03:04:00,
2013-02-06 22:09:00,30.2,-1.4,30.09,North,0,10.0,19.2,25,0.00,,,0.00,VWS V14.01,2013-02-07 03:09:00,
2013-02-06 22:14:00,30.0,-1.5,30.09,North,357,10.5,19.2,25,0.00,,,0.00,VWS V14.01,2013-02-07 03:14:00,
2013-02-06 22:19:00,29.8,-1.7,30.09,NNW,335,12.7,19.2,25,0.00,,,0.00,VWS V14.01,2013-02-07 03:19:00,
2013-02-06 22:24:00,29.8,-1.7,30.09,North,0,12.7,19.2,25,0.00,,,0.00,VWS V14.01,2013-02-07 03:24:00,
2013-02-06 22:29:00,29.7,-1.8,30.09,NW,315,15.4,19.2,25,0.00,,,0.00,VWS V14.01,2013-02-07 03:29:00,
2013-02-06 22:34:00,29.7,-1.8,30.09,NW,320,10.5,19.2,25,0.00,,,0.00,VWS V14.01,2013-02-07 03:34:00,
2013-02-06 22:39:00,29.5,-2.0,30.09,NW,326,5.8,19.2,25,0.00,,,0.00,VWS V14.01,2013-02-07 03:39:00,
2013-02-06 22:44:00,29.5,-2.0,30.09,NW,309,14.9,19.2,25,0.00,,,0.00,VWS V14.01,2013-02-07 03:44:00,
2013-02-06 22:49:00,29.5,-2.0,30.09,NNW,335,10.5,19.2,25,0.00,,,0.00,VWS V14.01,2013-02-07 03:49:00,
2013-02-06 22:54:00,29.3,-2.2,30.09,North,353,12.7,19.2,25,0.00,,,0.00,VWS V14.01,2013-02-07 03:54:00,
2013-02-06 22:59:00,29.1,-2.3,30.09,North,349,10.0,19.2,25,0.00,,,0.00,VWS V14.01,2013-02-07 03:59:00,
2013-02-06 23:00:00,29.1,-2.3,30.09,North,353,10.0,19.2,25,0.00,,,0.00,VWS V15.00,2013-02-07 04:00:00,
2013-02-06 23:04:00,29.1,-2.3,30.09,NE,36,11.8,12.7,25,0.00,,,0.00,VWS V14.01,2013-02-07 04:04:00,
2013-02-06 23:09:00,28.9,-2.5,30.09,North,6,10.0,12.7,25,0.00,,,0.00,VWS V14.01,2013-02-07 04:09:00,
2013-02-06 23:14:00,28.8,-2.6,30.09,WNW,299,4.9,14.1,25,0.00,,,0.00,VWS V14.01,2013-02-07 04:14:00,
2013-02-06 23:19:00,28.6,-2.8,30.12,North,353,9.4,14.5,25,0.00,,,0.00,VWS V14.01,2013-02-07 04:19:00,
2013-02-06 23:24:00,28.6,-2.8,30.12,NNW,339,6.2,14.5,25,0.00,,,0.00,VWS V14.01,2013-02-07 04:24:00,
2013-02-06 23:29:00,28.4,-2.1,30.12,NNW,346,7.6,14.5,26,0.00,,,0.00,VWS V14.01,2013-02-07 04:29:00,
2013-02-06 23:34:00,28.4,-2.1,30.12,North,353,10.0,14.5,26,0.00,,,0.00,VWS V14.01,2013-02-07 04:34:00,
2013-02-06 23:39:00,28.2,-2.2,30.12,North,357,7.1,14.5,26,0.00,,,0.00,VWS V14.01,2013-02-07 04:39:00,
2013-02-06 23:44:00,28.2,-2.2,30.12,North,357,8.0,14.5,26,0.00,,,0.00,VWS V14.01,2013-02-07 04:44:00,
2013-02-06 23:49:00,28.2,-2.2,30.12,NNW,346,8.0,14.5,26,0.00,,,0.00,VWS V14.01,2013-02-07 04:49:00,
2013-02-06 23:54:00,28.0,-2.4,30.12,NNE,23,5.8,14.5,26,0.00,,,0.00,VWS V14.01,2013-02-07 04:54:00,
2013-02-06 23:59:00,28.0,-2.4,30.12,North,353,5.3,14.5,26,0.00,,,0.00,VWS V14.01,2013-02-07 04:59:00,